SCP
1 1 1 1 1 1 1 1 1 1 1 0 0 0 0 0 0 0 0 0 0 0 0 0 0 0 0 0 0 0 0 0 0 0 0 0 0 0 0 0 0 0 0
1 1 1 1 1 1 1 1 1 1 1 1 0 0 0 0 0 0 0 0 0 0 0 0 0 0 0 0 0 0 0 0 0 0 0 0 0 0 0 0 0 0 0
1 1 1 1 1 1 1 1 1 1 1 1 1 0 0 0 0 0 0 0 0 0 0 0 0 0 0 0 0 0 0 0 0 0 0 0 0 0 0 0 0 0 0
1 1 1 1 1 1 1 1 1 1 1 1 1 0 0 0 0 0 0 0 0 0 0 0 0 0 0 0 0 0 0 0 0 0 0 0 0 0 0 0 0 0 0
1 1 1 1 1 1 1 1 2 1 1 1 1 1 1 1 1 1 1 1 0 0 0 0 0 0 0 0 0 0 0 0 0 0 0 0 0 0 0 0 0 0 0
1 1 1 1 1 1 1 1 2 2 1 1 1 1 1 1 1 1 1 1 1 0 0 0 0 0 0 0 0 0 0 0 0 0 0 0 0 0 0 0 0 0 0
1 1 1 1 1 1 1 1 2 2 2 1 1 1 1 1 1 1 1 1 1 1 1 1 0 0 0 0 0 0 0 0 0 0 0 0 0 0 0 0 0 0 0
1 1 1 1 1 1 1 2 2 2 2 2 1 1 1 1 1 1 1 1 1 1 1 1 1 1 0 0 0 0 0 0 0 0 0 0 0 0 0 0 0 0 0
1 1 1 1 1 1 1 1 2 2 2 2 1 1 1 1 1 1 1 1 1 1 1 1 1 1 1 0 0 0 0 0 0 0 0 0 0 0 0 0 0 0 0
1 1 1 1 1 1 1 1 2 2 2 2 2 1 1 1 1 1 1 1 1 1 1 1 1 1 1 1 0 0 0 0 0 0 0 0 0 0 0 0 0 0 0
1 1 1 1 1 1 1 1 1 2 2 2 2 2 1 1 1 1 1 1 1 1 1 1 1 1 1 1 1 0 0 0 0 0 0 0 0 0 0 0 0 0 0
1 1 1 1 1 1 1 1 1 1 2 2 2 2 2 1 1 1 1 1 1 2 2 2 1 1 1 1 1 1 0 0 0 0 0 0 0 0 0 0 0 0 0
1 1 1 1 1 1 1 1 1 1 2 2 2 2 2 1 1 1 1 1 1 2 2 2 1 1 1 1 1 1 1 1 0 0 0 0 1 1 1 0 0 0 0
1 1 1 1 1 1 1 1 1 2 2 2 2 2 2 2 1 1 1 1 1 2 1 1 1 1 1 1 1 1 1 1 1 0 0 1 1 1 1 0 0 0 0
1 1 1 2 2 2 2 2 2 2 2 2 2 2 2 2 2 2 1 1 1 1 1 1 1 1 1 1 1 1 1 1 1 1 0 1 1 1 0 0 0 0 0
1 1 1 2 2 2 2 2 2 2 2 2 2 2 2 2 2 2 2 2 2 1 1 1 1 1 1 1 1 1 1 1 1 1 0 0 0 0 0 0 0 0 0
1 1 1 2 2 2 2 2 2 2 2 2 2 2 2 2 2 2 2 2 2 2 1 1 1 1 1 0 0 0 0 1 1 0 0 0 0 0 0 0 0 0 0
1 1 1 2 2 2 2 2 2 2 2 2 2 2 2 2 2 2 2 2 2 2 1 1 1 1 1 0 0 0 0 0 0 0 0 0 0 0 0 0 0 0 0
1 1 1 1 2 2 2 2 2 2 2 2 2 2 2 2 2 2 2 2 2 2 1 1 1 1 1 0 0 0 0 0 0 0 0 0 0 0 0 0 0 0 0
1 1 1 1 2 2 2 2 2 2 2 2 2 2 2 2 2 2 2 2 2 2 2 1 1 1 1 1 0 0 0 0 0 0 0 0 0 0 0 0 0 0 0
1 1 2 2 2 2 2 2 2 2 2 2 2 2 2 2 2 2 2 2 2 2 2 1 1 1 1 1 0 0 0 0 0 0 0 0 0 0 0 0 0 0 0
1 2 2 2 2 2 2 2 3 3 2 2 2 2 2 2 2 2 2 2 2 2 2 1 1 1 1 1 0 0 0 0 0 0 0 0 0 0 0 0 0 0 0
1 2 2 2 2 2 3 3 3 3 3 3 3 2 2 2 2 2 2 2 2 2 1 1 1 1 1 1 1 0 0 0 0 0 0 0 0 0 0 0 0 0 0
1 1 2 2 2 3 3 3 3 3 3 3 3 3 2 2 2 2 2 2 1 1 1 1 1 1 1 1 1 0 0 0 0 0 0 0 0 0 0 0 0 0 0
1 1 2 2 2 2 2 2 3 3 3 3 3 3 2 2 2 2 1 1 1 1 1 1 1 1 1 1 1 1 0 0 0 0 0 0 0 0 0 0 0 0 0
1 1 1 2 2 2 2 2 2 3 3 3 3 2 2 2 2 2 1 1 1 1 1 1 1 1 1 1 0 0 0 0 0 0 0 0 0 0 0 0 0 0 0
Wind_Speed
13 13 13 13 12 11 9 8 7 6 4 3 3 2 2 2 2 2 3 3 2 2 1 1 2 1 2 2 1 1 0 0 0 0 0 1 2 2 2 2 2 2 3
14 13 13 13 13 12 11 9 7 7 6 4 3 3 3 2 2 2 3 2 2 2 2 2 1 2 2 2 1 1 0 1 0 0 0 1 0 1 3 3 3 2 2
16 15 14 13 13 12 12 10 9 8 7 6 4 3 3 1 2 3 3 2 2 1 2 2 1 1 2 2 1 1 1 0 1 0 1 1 1 0 0 1 2 2 1
14 15 15 14 14 13 12 10 10 8 7 6 5 6 5 3 3 2 3 3 2 2 2 2 2 1 1 2 1 1 0 1 1 1 1 1 1 0 0 1 1 2 2
13 14 14 13 13 13 12 11 10 9 8 7 6 5 4 3 3 3 4 3 3 2 2 3 2 2 1 2 1 1 0 1 1 1 1 0 1 1 1 1 1 1 1
11 12 11 11 11 13 12 12 11 9 8 7 7 6 5 4 4 4 3 3 2 3 3 3 2 2 1 2 2 1 1 0 1 2 2 1 1 1 1 1 2 1 2
12 12 12 12 11 12 13 13 12 10 10 9 7 6 5 5 5 4 5 4 3 3 4 3 3 2 2 2 2 2 1 1 1 1 2 1 2 1 1 0 1 1 1
10 12 12 11 10 12 12 12 13 11 11 9 7 6 5 5 4 5 4 4 3 3 4 4 4 3 3 3 2 2 2 2 2 2 1 2 2 2 1 1 1 1 1
9 11 12 11 9 8 9 11 12 11 11 11 8 7 6 5 5 5 5 3 3 3 5 5 5 4 3 2 2 2 2 2 2 2 2 2 2 2 2 1 1 1 1
8 9 10 11 11 10 9 9 10 10 10 10 9 8 7 6 5 5 5 4 4 3 4 5 5 4 4 3 2 2 2 2 2 2 1 1 2 2 2 1 1 1 1
7 7 7 9 10 10 10 11 11 10 10 9 8 8 8 7 6 5 4 5 4 4 4 5 5 4 4 4 3 3 3 3 3 3 2 2 2 2 2 2 1 1 1
4 6 7 8 8 9 9 9 9 10 9 8 7 7 7 7 8 7 5 4 5 5 5 4 4 5 4 4 4 4 4 4 3 3 2 2 2 2 2 2 2 1 1
4 5 6 6 7 6 7 7 8 9 8 8 8 7 7 7 6 6 6 5 5 5 5 4 5 4 4 4 4 4 3 3 3 3 3 3 2 2 2 2 2 2 2
4 5 5 5 5 5 5 5 5 7 7 7 7 7 7 6 6 5 5 5 5 5 5 4 4 4 4 4 4 4 4 4 3 3 3 3 3 2 3 3 2 3 3
3 4 4 5 5 5 5 5 4 5 6 6 7 6 6 6 5 5 4 5 5 6 5 4 4 4 4 4 4 4 5 4 4 3 3 3 2 2 2 2 2 2 2
2 2 4 5 5 5 5 4 4 4 5 6 6 5 5 5 5 5 6 5 5 5 4 5 5 5 4 4 5 4 4 4 4 4 3 3 3 4 4 3 3 3 4
3 3 2 3 4 5 5 5 4 5 6 6 5 6 5 5 5 6 6 6 5 5 5 5 5 5 4 4 4 4 4 4 4 4 3 4 3 3 2 3 4 5 6
4 3 1 1 2 3 4 5 5 4 5 6 5 5 5 5 5 5 5 5 5 5 5 5 5 5 5 5 5 5 5 4 4 3 3 3 2 2 2 3 4 4 4
5 4 3 1 0 2 2 3 5 5 5 6 5 5 5 5 5 5 5 4 5 5 5 5 5 5 5 6 6 6 4 4 4 4 4 3 3 3 3 3 4 4 3
4 4 4 2 2 2 2 1 3 4 4 5 5 5 5 5 5 5 5 4 4 5 5 5 5 5 5 7 8 7 4 4 4 3 4 5 4 3 3 3 3 4 4
5 5 5 3 3 2 2 2 2 3 3 4 4 4 4 5 5 4 4 4 4 5 5 5 5 5 6 7 9 9 5 4 3 3 3 3 5 5 5 4 4 4 4
5 5 4 4 2 1 1 2 1 0 1 2 3 3 3 4 5 5 4 4 5 5 5 5 5 4 5 6 8 10 9 5 3 3 2 1 4 4 5 4 4 4 4
4 4 4 4 3 2 2 2 2 2 1 0 2 3 3 3 3 4 5 5 5 5 5 5 5 4 4 5 7 9 9 8 4 3 2 2 4 4 4 6 5 4 3
3 4 4 3 3 3 2 1 1 1 0 1 2 3 3 3 3 3 4 4 4 5 4 4 4 3 3 3 4 4 5 6 5 4 3 4 6 5 4 3 4 4 4
2 3 3 2 2 2 3 2 1 0 1 2 2 3 3 4 3 4 3 4 3 4 4 4 3 3 3 4 5 5 4 4 3 3 2 2 3 3 3 3 3 4 4
2 2 3 3 3 2 2 2 1 1 2 3 3 3 3 3 4 4 4 4 5 5 5 4 3 2 3 5 7 6 5 4 4 3 3 4 4 4 3 3 4 4 4
Wind_Direction
171 165 166 162 157 155 156 157 162 155 158 160 157 154 154 150 132 134 135 143 141 130 134 110 130 93 90 76 64 60 96 208 151 70 147 189 166 169 172 174 168 169 165
169 166 172 170 166 161 162 163 165 163 166 163 161 163 158 161 153 130 128 136 137 144 144 122 150 119 113 102 102 107 82 297 86 160 160 93 13 264 186 167 178 166 171
172 172 177 174 171 168 167 170 169 166 173 168 170 165 147 168 144 139 147 149 144 135 96 120 119 126 129 130 160 134 178 259 279 123 111 132 168 176 84 192 143 156 160
175 175 178 178 176 171 170 167 163 165 170 172 179 177 175 177 171 156 147 147 150 148 132 124 118 124 116 135 183 120 275 230 267 241 183 133 105 146 137 284 147 179 181
173 174 178 177 174 168 168 164 159 164 168 175 180 181 180 172 155 152 145 157 165 170 151 133 132 134 133 132 114 105 22 299 317 315 285 189 178 237 182 196 210 214 176
167 168 171 167 172 168 166 162 159 164 168 175 181 182 178 161 155 158 157 173 170 171 167 156 150 150 142 135 143 160 178 267 358 334 322 327 304 273 253 208 213 197 198
165 162 164 168 171 170 169 164 163 168 172 176 181 180 181 172 172 180 175 182 184 175 168 166 158 162 148 154 155 180 193 199 234 276 297 318 299 314 309 326 275 272 208
166 161 164 165 168 171 169 167 166 170 175 178 180 179 181 186 184 186 192 191 191 170 158 164 167 168 172 182 172 191 181 188 231 248 272 291 297 311 310 309 312 300 276
159 161 164 161 158 169 169 167 164 170 177 180 176 178 183 192 189 183 193 195 181 168 161 170 173 171 172 173 171 199 195 188 218 244 244 267 279 285 296 299 268 248 272
151 152 157 162 163 168 171 162 165 169 175 176 180 181 185 191 189 187 186 189 186 174 165 168 171 169 171 180 194 205 201 207 224 238 237 283 303 308 302 299 286 249 247
147 150 157 162 163 164 168 166 169 171 176 179 179 181 181 189 189 191 191 186 184 176 174 174 173 176 178 188 203 221 201 211 228 242 227 231 263 305 307 301 290 283 274
148 150 154 159 160 166 164 165 168 174 177 173 174 180 182 184 187 191 194 188 181 180 179 182 181 189 187 194 202 223 221 215 219 231 242 246 246 254 287 305 302 291 276
157 155 150 152 157 163 161 164 173 172 170 170 177 180 184 187 189 190 185 186 186 182 183 186 192 198 192 197 207 217 227 229 227 224 234 244 254 264 266 277 287 291 286
134 139 141 138 145 148 145 153 171 166 165 170 176 180 184 182 185 184 182 185 185 183 186 194 199 200 196 200 206 216 217 222 227 225 227 231 232 244 263 262 273 283 287
129 138 139 137 142 143 146 157 174 167 162 166 175 176 180 177 178 175 182 184 191 191 187 191 202 209 202 208 206 221 220 215 224 227 225 222 210 219 246 268 287 290 286
80 110 130 138 146 154 159 163 171 161 155 166 173 169 173 174 172 173 178 186 191 189 188 193 200 215 218 203 201 218 229 216 218 228 232 220 210 218 221 244 262 262 266
37 41 74 140 155 162 162 168 172 167 164 169 172 168 172 174 176 182 177 181 188 188 193 200 202 202 203 205 199 216 235 234 229 228 231 246 224 198 219 240 246 248 242
14 12 19 113 161 166 168 171 170 165 169 170 174 170 175 179 177 180 180 182 185 190 198 205 205 195 201 206 202 213 225 237 237 229 229 237 243 243 246 249 247 242 236
2 5 355 3 144 141 146 170 173 172 178 180 182 179 181 182 183 189 188 189 191 197 201 201 205 202 196 200 201 200 219 228 232 229 229 222 222 233 241 257 259 256 253
14 7 0 26 37 67 111 147 190 183 188 187 187 182 185 187 186 192 192 195 199 204 205 207 208 206 201 197 196 195 219 232 233 229 222 220 216 216 219 237 256 259 265
26 20 15 31 34 44 115 138 170 192 198 188 185 188 192 194 186 189 196 199 207 208 212 212 211 206 203 194 194 195 214 232 239 240 234 213 190 201 221 230 249 257 270
22 15 16 20 40 41 107 126 119 306 214 194 184 188 199 214 192 188 197 203 209 216 217 213 217 213 196 191 199 201 214 234 244 258 260 195 175 199 222 230 249 261 273
13 3 12 11 8 16 36 76 40 22 13 216 201 204 207 208 189 197 200 206 209 217 221 216 215 215 199 185 190 198 210 224 235 261 272 225 209 212 220 236 245 248 248
355 352 355 355 354 354 1 46 43 43 1 248 219 218 213 214 192 207 212 217 217 219 220 222 221 216 197 178 176 195 209 220 232 255 253 219 217 229 241 235 229 230 234
343 341 333 336 336 337 341 355 355 323 252 252 241 239 231 214 202 208 218 217 218 214 216 225 221 217 214 199 182 186 196 204 208 216 217 221 216 221 225 225 223 226 226
333 330 325 325 324 322 316 313 300 279 257 249 244 247 242 224 217 212 218 223 219 207 202 206 212 203 196 175 173 176 176 182 172 187 223 230 230 229 226 228 227 225 224